Regional Weather Roundup
Issued by NWS Pendleton, OR

Home | Current Version | Previous Version | Text Only | Print | Product List | Glossary On
Versions: 1 2 3 4 5 6 7 8 9 10 11 12 13 14 15 16 17 18 19 20 21 22 23 24 25 26 27 28 29 30 31 32 33 34 35 36 37 38 39 40 41 42 43 44 45 46 47 48 49 50
000
ASUS46 KPDT 200425
RWRPDT
PENDLETON REGIONAL WEATHER ROUNDUP
NATIONAL WEATHER SERVICE PENDLETON OREGON
800 PM PST SUN FEB 19 2017

NOTE: FAIR INDICATES FEW OR NO CLOUDS BELOW 12,000 FEET WITH NO
SIGNIFICANT WEATHER AND/OR OBSTRUCTIONS TO VISIBILITY.

# INDICATES UNOFFICIAL STATION AND DATA

WAZ520-200510-
EAST SLOPES OF WASHINGTON CASCADES

CITY            SKY/WX      TMP DP  RH  WIND    PRES   REMARKS
#CLE ELUM HS    N/A         34  31  89  CALM    29.58R
#CLE ELUM LAKE  N/A         32  32  100 CALM    29.63R
#GLENWOOD       N/A         34  33  96  CALM    29.67R
#MANASTASH CYN  N/A         32  29  89  CALM    29.58R
#NELSON 3SW     N/A         31  30  96  CALM    29.84R
#NILE           N/A         32  31  96  CALM    28.89R
#TEANAWAY 4NE   N/A         35  33  92  CALM    N/A
#TROUT LAKE 1NE N/A         35  34  96  CALM    29.67R
#TROUT LAKE 1E  N/A         34  33  96  CALM    29.64R
$$

WAZ521-200510-
SIMCOE HIGHLANDS

CITY            SKY/WX      TMP DP  RH  WIND    PRES   REMARKS
#CENTERVILLE 1SWN/A         34  31  89  CALM    29.65R
#GOLDENDALE 1NE N/A         36  30  79  N3      N/A
#GOLDENDALE 4W  N/A         35  21  56  CALM    29.67R
#GOODNOE HILLS  N/A         39  36  89  NE2     29.56R
#LYLE 6NE       N/A         38  34  85  CALM    29.64R
#PITT 4SE       N/A         36  33  89  CALM    29.70R
$$

WAZ026-200510-
KITTITAS VALLEY

CITY            SKY/WX      TMP DP  RH  WIND    PRES   REMARKS
ELLENSBURG AP   PTCLDY      37  30  75  E8      29.59R
#ELLENSBURG CWU N/A         36  32  85  E1      29.58R
#ELLENSBURG 3NE N/A         36  33  89  SE2     27.69R
#KITTITAS 4N    N/A         36  30  79  E3      29.65R
#KITTITAS 3S    N/A         34  32  92  CALM    29.63R
#THORP 6N       N/A         35  33  92  E8      29.66R
$$

WAZ027-200510-
YAKIMA VALLEY

CITY            SKY/WX      TMP DP  RH  WIND    PRES   REMARKS
SUNNYSIDE AP    MOCLDY      32  32  100 CALM    29.65R
YAKIMA AIRPORT  PTCLDY      36  32  85  VRB3    29.63R
YAKIMA-VAGABOND MOCLEAR     34  30  85  CALM    29.59R
#DONALD 2NE     N/A         37  26  64  NW1     28.49R
#GRANDVIEW      N/A         37  33  85  CALM    29.68R
#MABTON         N/A         34  33  96  W1      29.63R
#MOXEE 2E       N/A         36   0  21  NW3     29.51S
#NACHES 2SW     N/A         33  31  92  CALM    29.59R
#TERRACE HTS    N/A         37  33  85  CALM    29.62R
#TOPPENISH      N/A         35  33  92  CALM    29.58R
#WEST VALLEY    N/A         40  35  82  N1      29.63R
#W YAKIMA       N/A         39  34  82  CALM    29.67R
#WHITE SWAN 5E  N/A         34  33  96  CALM    29.66R
$$

WAZ028-200510-
LOWER COLUMBIA BASIN...WASHINGTON

CITY            SKY/WX      TMP DP  RH  WIND    PRES   REMARKS
PASCO           PTCLDY      40  34  79  CALM    29.65R
PROSSER AWOS    N/A         39  39  100 CALM    29.68R
RICHLAND AWOS   PTCLDY      40  37  89  CALM    29.66R
#BENTON CITY    N/A         41  36  82  CALM    29.58R
#CONNELL 5N     N/A         37  33  85  CALM    29.67R
#CONNELL 5NW    N/A         37  33  85  CALM    29.62R
#ELTOPIA 6NW    N/A         41  36  82  CALM    28.61R
#KAHLOTUS       N/A         39  34  82  S7      29.67R
#KENNEWICK 3S   N/A         45  36  70  SE1     29.66R
#PATERSON       N/A         36  35  96  CALM    29.66R
#SAGEMOOR 2W    N/A         42  35  76  CALM    29.51R
#TOUCHET 2S     N/A         41  37  86  CALM    29.64R
#WEST PASCO     N/A         43  37  79  CALM    29.60R
$$

WAZ029-200510-
FOOTHILLS OF THE BLUES...WASHINGTON

CITY            SKY/WX      TMP DP  RH  WIND    PRES   REMARKS
WALLA WALLA AP  MOCLDY      45  33  63  SE6     29.64R
#CLYDE 6NW      N/A         38  34  85  CALM    29.66R
#DAYTON SCHOOL  N/A         37  26  64  CALM    29.69R
#LOWDEN 2SE     N/A         40  36  85  CALM    29.61R
#PLEASANT VIEW 1N/A         41  35  79  CALM    29.72R
#PRESCOTT       N/A         37  34  89  CALM    29.65R
#WHITMAN COLLEGEN/A         47  35  63  S3      29.72R
#WAITSBURG 5S   N/A         42  35  76  SE3     29.76R
#WAITSBURG 8N   N/A         41  N/A N/A S1      29.50R
#WALLA WALLA 5E N/A         49  34  56  S13     N/A    WCI 44
#WALLA WALLA U  N/A         45  37  73  CALM    29.66R
#WHITMAN MISSIONN/A         42  37  82  CALM    29.67R
$$

WAZ030-200510-
BLUE MOUNTAINS...WASHINGTON

CITY            SKY/WX      TMP DP  RH  WIND    PRES   REMARKS
#DIXIE 5SE      N/A         37  34  89  SE5     29.55R
#SKI BLUEWOOD   N/A         32  28  85  SW1     29.62R
$$

ORZ009-041-WAZ024-200510-
COLUMBIA RIVER GORGE

CITY            SKY/WX      TMP DP  RH  WIND    PRES   REMARKS
HOOD RIVER AP   FOG         37  37  100 CALM    29.66R VSB 1/4
THE DALLES AP   CLOUDY      40  37  89  NW3     29.66R
#ARLINGTON AIRPON/A         39  36  89  CALM    29.69R
#ARLINGTON HS   N/A         37  34  89  NW2     29.59R
#CELILO DOT     N/A         42  35  76  S2      N/A
#LYLE           N/A         41  38  89  N2      29.68R
#MOSIER 1S      N/A         37  30  75  CALM    29.65R
#RUFUS DOT      N/A         42  40  93  SE2     N/A
#SMITHVILLE     N/A         40  37  89  N2      29.62R

$$

ORZ510-200510-
NORTH CENTRAL OREGON

CITY            SKY/WX      TMP DP  RH  WIND    PRES   REMARKS
#CHENOWITH 1W   N/A         37  34  89  N7      N/A
#COW CYN RST AREN/A         40  29  64  S8      N/A
#DUFUR 9E       N/A         41  33  73  SW15    29.70R WCI 33
#GRASS VALLEY 1SN/A         38  34  85  SW5     29.79R
#KENT DOT       N/A         37  24  59  N6      N/A
#MAUPIN SCHOOL  N/A         44  33  65  SW1     29.69R
#MORO SCHOOL    N/A         38  36  92  SE5     29.71R
#SHANIKO 5WSW   N/A         37  20  50  N8      N/A
#SHANIKO 4NW    N/A         37  27  67  S10     29.59S
#TYGH VALLEY 2NEN/A         43  36  76  CALM    29.65R
#WAPANITIA AIRPON/A         39  34  82  CALM    29.67R
#WASCO DOT      N/A         37  32  82  E6      N/A
#WASCO 5NE      N/A         34  31  89  CALM    29.67S
$$

ORZ511-200510-
CENTRAL OREGON

CITY            SKY/WX      TMP DP  RH  WIND    PRES   REMARKS
BEND AIRPORT    MOCLDY      36  34  92  CALM    29.63R
MADRAS AIRPORT  CLOUDY      43  30  60  S14     29.64R WCI 36
PRINEVILLE AP   CLOUDY      39  36  89  CALM    29.64F
REDMOND AIRPORT CLOUDY      39  31  73  SE6     29.63R
#ASHWOOD SCHOOL N/A         44  31  60  S5      29.62S
#BEND 1SW       N/A         34  33  96  W1      N/A
#BEND-AWBREY    N/A         36  34  92  SW3     29.68S
#BEND-KIM LN    N/A         38  31  76  SE2     29.62R
#CULVER         N/A         42  30  62  S6      29.59R
#CULVER 8W      N/A         41  30  65  SW10    29.69R
#LAKE BILLY CHINN/A         41  N/A N/A S10     29.76R
#POWELL BUTTE   N/A         37  34  89  S5      29.63S
#PRINEVILLE 3N  N/A         39  35  85  E5      29.66S
#WARM SPRINGS   N/A         45  32  60  CALM    29.60R

$$


ORZ509-200510-
EAST SLOPES OF OREGON CASCADES

CITY            SKY/WX      TMP DP  RH  WIND    PRES   REMARKS
SISTERS AWOS    N/A         39  28  64  CALM    29.63R
#BLUE BOX PASS  N/A         31  N/A N/A S8      N/A
#CAMP SHERMAN   N/A         38  29  70  SE1     29.75R
#LA PINE 4NW    N/A         32  29  89  CALM    29.72F
#LAVA BUTTE DOT N/A         32  31  96  CALM    N/A
#SISTERS ODOT   N/A         39  N/A N/A CALM    N/A
#SISTERS 3N     N/A         36  24  61  E5      29.64R
#SUNRIVER       N/A         33  32  96  CALM    29.70S
#TUMALO 3W      N/A         37  30  75  S8      29.54S
#WANOGA BUTTE D N/A         27  27  100 W8      N/A

$$

ORZ044-200510-
LOWER COLUMBIA BASIN...OREGON

CITY            SKY/WX      TMP DP  RH  WIND    PRES   REMARKS
HERMISTON       CLOUDY      35  35  100 W7      29.64R FOG
#BOARDMAN SCHOOLN/A         35  34  96  CALM    29.68R
#BOARDMAN 8SW   N/A         34  33  96  NE3     29.67R
#ECHO 8SW       N/A         35  35  100 CALM    29.66R
#I-84 EX 198 DOTN/A         46  33  60  N12     N/A    WCI 40
#IONE SCHOOL    N/A         39  24  54  CALM    29.69R
#UMATILLA       N/A         36  32  85  CALM    29.59R
$$

ORZ507-200510-
NORTHERN FOOTHILLS OF THE BLUES

CITY            SKY/WX      TMP DP  RH  WIND    PRES   REMARKS
PENDLETON AIRPT CLOUDY      42  33  70  SW12    29.63R WCI 35
#ADAMS 3WNW     N/A         36  32  85  CALM    29.67R
#ATHENA         N/A         40  33  76  CALM    29.70R
#CAYUSE         N/A         47  33  58  SE14    29.65R WCI 41
#HELIX SCHOOL   N/A         37  33  85  N1      29.68R
#HELIX 3N       N/A         40  34  79  SE2     29.62R
#HOLDMAN 5SE    N/A         30  29  96  CALM    29.80S
#HOLDMAN 6E     N/A         42  35  76  E7      29.47R
#M-F FERNDALE   N/A         44  34  68  CALM    29.62R
#M-F GROVE ELEM N/A         42  32  67  CALM    29.62R
#M-FREEWATER 5SEN/A         42  34  73  E9      29.65R
#PENDLETON DNTN N/A         39  32  76  CALM    29.63S
#PDT AQUATIC CTRN/A         39  33  79  CALM    29.66R
#PDT SUNRIDGE   N/A         37  33  85  CALM    29.65R
#PENDLETON 7NW  N/A         43  34  70  S7      32.16S
#PILOT ROCK 1S  N/A         47  26  44  S8      29.65R
#PILOT ROCK     N/A         46  33  60  SW8     29.67R
#TUTUILLA       N/A         39  33  79  CALM    29.66R
#UMAPINE 2E     N/A         44  37  76  S3      29.61R
#WESTON SCHOOL  N/A         45  29  53  SW6     29.58R

$$

ORZ508-200510-
SOUTHERN FOOTHILLS OF THE BLUES

CITY            SKY/WX      TMP DP  RH  WIND    PRES   REMARKS
LEXINGTON       MOCLDY      41  34  76  CALM    29.67R
#AJAX           N/A         39  28  64  CALM    29.80S
#CONDON SCHOOL  N/A         40  30  67  SW6     29.60R
#CONDON 5W      N/A         39  26  59  SW6     29.59R
#HEPPNER EOC    N/A         45  32  60  S1      29.59R
#HEPPNER 4NE    N/A         40  31  70  CALM    29.66R
#LEXINGTON 2SE  N/A         44  33  65  S5      29.60R
#MIKKALO        N/A         36  32  85  SE5     29.76R
#OLEX 4N        N/A         39  37  92  S7      29.64R
#RUGGS 5NE      N/A         40  29  64  S7      29.78S
#RUGGS 2SW      N/A         41  31  67  S2      29.70R

$$

ORZ502-503-200510-
BLUE MOUNTAINS

CITY            SKY/WX      TMP DP  RH  WIND    PRES   REMARKS
MEACHAM         MOCLDY      33  25  72  CALM    29.64R
#BATTLE MTN DOT N/A         35  26  69  S6      N/A
#GREENHORN 9SW  N/A         33  32  96  CALM    29.73R
#HEPPNER 15SE   N/A         36  28  72  S2      29.93R
#LADD CYN SMT   N/A         37  29  72  SE16    N/A    WCI 28
#LADD CREEK ODOTN/A         39  23  52  SW6     N/A
#LONG CREEK HS  N/A         37  35  92  CALM    N/A
#N POWDER DOT   N/A         37  32  82  S8      N/A
#PIKES PEAK     N/A         41  24  50  NW23    27.99S WCI 31
#TOLLGATE       N/A         29  26  88  S1      29.54R
#TROY SCHOOL    N/A         34  32  92  CALM    29.60R
#UKIAH          N/A         39  31  73  S7      29.61R
#WESTON 4E      N/A         39  29  67  SE8     29.67R
$$

ORZ505-200510-
JOHN DAY BASIN

CITY            SKY/WX      TMP DP  RH  WIND    PRES   REMARKS
JOHN DAY        LGT DRIZZLE 37  35  92  CALM    29.69R
#ANTELOPE 9ESE  N/A         45  32  60  CALM    N/A
#DAYVILLE SCHOOLN/A         40  35  82  S5      29.67R
#MITCHELL       N/A         41  35  79  CALM    29.83R
#MITCHELL 8NW   N/A         38  31  76  E5      29.51R
#MONUMENT HS    N/A         45  32  60  CALM    29.63R
#MT. VERNON 5SE N/A         34  32  92  CALM    29.62R
#WINLOCK        N/A         40  29  64  CALM    29.65R
$$

ORZ506-200510-
OCHOCO AND JOHN DAY HIGHLANDS

CITY            SKY/WX      TMP DP  RH  WIND    PRES   REMARKS
#HORSE RIDGE DO N/A         35  32  89  W1      N/A
#PAULINA SCHOOL N/A         36  35  96  N2      N/A
#PINE MTN OBS   N/A         29  28  96  CALM    N/A
#PRAIRIE CITY   N/A         36  32  85  CALM    29.85R
#SENECA         N/A         33  N/A N/A CALM    N/A
#SENECA 9NW     N/A         32  31  96  CALM    29.72R
$$

ORZ049-200510-
GRANDE RONDE VALLEY

CITY            SKY/WX      TMP DP  RH  WIND    PRES   REMARKS
LA GRANDE       MOCLDY      41  30  65  S23G28  29.67R WCI 31
#COVE           N/A         43  31  62  S5      29.72S
#COVE 6NW       N/A         40  32  73  SE6     29.72S
#ELGIN 3N       N/A         40  27  59  S9      29.68R
#ELGIN 1E       N/A         39  31  73  S2      N/A
#IMBLER SCHOOL  N/A         39  32  76  S7      29.66R
#ISLAND CITY 4N N/A         42  41  96  CALM    29.64R
#UNION 1S       N/A         41  33  73  S8      29.72S
$$

ORZ050-200510-
WALLOWA COUNTY

CITY            SKY/WX      TMP DP  RH  WIND    PRES   REMARKS
JOSEPH AIRPORT  CLOUDY      34  27  75  CALM    29.67R
#IMNAHA SCHOOL  N/A         47  34  60  SE10    29.71R
#IMNAHA 10S     N/A         44  31  60  SW6     29.70S
#JOSEPH 3N      N/A         34  23  64  CALM    29.72R
#JOSEPH 3W      N/A         32  24  72  SW3     29.55R
#LOSTINE        N/A         37  29  72  SE1     29.52S
#LOSTINE 3SE    N/A         36  29  75  CALM    29.70S
#MT HOWARD 8000 N/A         22  18  84  SW15    29.55F WCI  9
#PROMISE 1S     N/A         29  27  92  CALM    29.83R
#WALLOWA SCHOOL N/A         33  30  89  CALM    29.67S



$$



USA.gov is the U.S. government's official web portal to all federal, state and local government web resources and services.